Location: Gleizolles
(44.4833°N, 6.7667°E)
Time: 12:01:13
(UTC+00:00)

A-11 Canister half - Pass Details

Date: 19 June 2024
Orbit: 1515 x 1684 km, 47.2° (Epoch: 24 July)

Event Time Altitude Azimuth Distance (km) Brightness Sun altitude
Rises 02:51:01 0° 285° (WNW) 4,769 11.3 -8.6°
Reaches altitude 10° 02:57:31 10° 253° (WSW) 3,735 10.5 -7.8°
Maximum altitude 02:59:42 11° 239° (WSW) 3,641 10.3 -7.5°
Drops below altitude 10° 03:01:53 10° 225° (SW) 3,705 10.3 -7.2°
Sets 03:08:16 0° 193° (SSW) 4,654 11.0 -6.4°
